User: anonymous   Login
Location: Newark
(49.8348°N, 24.0280°E)
Time: 10:36:33
(UTC+00:00)
Language:

Courier 1B Rocket - Orbit

View from above orbital plane
View from above orbital plane
View from above satellite
View from above satellite

Ground track
Ground track

The orbit data is extracted from the following two-line orbital elements,

1    59U 60013B   20026.25513245 +.00000118 +00000-0 +37276-4 0  9990
2    59 028.2468 233.7820 0189217 164.3088 196.3420 13.52973923927196
Epoch (UTC): 26 January 2020 06:07:23
Eccentricity: 0.0189217
inclination: 28.2468°
perigee height: 920 km
apogee height: 1202 km
right ascension of ascending node: 233.7820°
argument of perigee: 164.3088°
revolutions per day: 13.52973923
mean anomaly at epoch: 196.3420°
orbit number at epoch: 92719

The dashed part of the orbit path shows where the satellite is in the earth's shadow,  

DLR